| time (UTC) | temp C | wind direction | speed KPH | gust KPH | rain 1hr cm | rain 24hr cm | rain mn cm | humidity % | barometer mb |
| 20260506014107 | 11 | 0.0 | 0.0 | 0.00 | 0.00 | 0.00 | 100 | 1003.2 | |
| 20260506013607 | 11 | 0.0 | 0.0 | 0.00 | 0.00 | 0.00 | 100 | 1003.2 | |
| 20260506013106 | 11 | 0.0 | 0.0 | 0.00 | 0.00 | 0.00 | 100 | 1003.2 | |
| 20260506012605 | 11 | 0.0 | 0.0 | 0.00 | 0.00 | 0.00 | 100 | 1003.2 | |
| 20260506012103 | 11 | 0.0 | 0.0 | 0.00 | 0.00 | 0.00 | 100 | 1003.3 | |
| 20260506011602 | 11 | 0.0 | 0.0 | 0.00 | 0.00 | 0.00 | 100 | 1003.3 | |
| 20260506011102 | 11 | 0.0 | 0.0 | 0.00 | 0.00 | 0.00 | 100 | 1003.3 | |
| 20260506010600 | 11 | 0.0 | 0.0 | 0.00 | 0.00 | 0.00 | 100 | 1003.4 | |
| 20260506010059 | 11 | 0.0 | 0.0 | 0.00 | 0.00 | 0.00 | 100 | 1003.4 | |
| 20260506005559 | 11 | 0.0 | 0.0 | 0.00 | 0.00 | 0.00 | 100 | 1003.4 | |
| 20260506005058 | 11 | 0.0 | 0.0 | 0.00 | 0.00 | 0.00 | 100 | 1003.4 | |
| 20260506004556 | 11 | 0.0 | 0.0 | 0.00 | 0.00 | 0.00 | 100 | 1003.5 | |
| 20260506004056 | 11 | 0.0 | 0.0 | 0.00 | 0.00 | 0.00 | 100 | 1003.5 | |
| 20260506003555 | 11 | 0.0 | 0.0 | 0.00 | 0.00 | 0.00 | 100 | 1003.7 | |
| 20260506003053 | 11 | 0.0 | 0.0 | 0.00 | 0.00 | 0.00 | 100 | 1003.7 | |
| 20260506002553 | 11 | 0.0 | 0.0 | 0.00 | 0.00 | 0.00 | 100 | 1003.7 | |
| 20260506002051 | 11 | 0.0 | 0.0 | 0.00 | 0.00 | 0.00 | 100 | 1003.9 | |
| 20260506001550 | 11 | 0.0 | 0.0 | 0.00 | 0.00 | 0.00 | 100 | 1003.9 | |
| 20260506001050 | 11 | 0.0 | 0.0 | 0.00 | 0.00 | 0.00 | 100 | 1003.9 | |
| 20260506000548 | 11 | 0.0 | 0.0 | 0.00 | 0.00 | 0.00 | 100 | 1004.0 | |
| 20260506000047 | 11 | 0.0 | 0.0 | 0.00 | 0.00 | 0.00 | 100 | 1004.0 | |
| 20260505235547 | 11 | 0.0 | 0.0 | 0.00 | 0.00 | 0.00 | 100 | 1004.2 | |
| 20260505235045 | 11 | 0.0 | 0.0 | 0.00 | 0.00 | 0.00 | 100 | 1004.2 | |
| 20260505234544 | 11 | 0.0 | 0.0 | 0.00 | 0.00 | 0.00 | 100 | 1004.2 | |
| 20260505234044 | 11 | 0.0 | 0.0 | 0.00 | 0.00 | 0.00 | 100 | 1004.2 | |
| 20260505233543 | 11 | 0.0 | 0.0 | 0.00 | 0.00 | 0.00 | 100 | 1004.2 | |
| 20260505233041 | 11 | 0.0 | 0.0 | 0.00 | 0.00 | 0.00 | 100 | 1004.2 | |
| 20260505232541 | 11 | 0.0 | 0.0 | 0.00 | 0.00 | 0.00 | 100 | 1004.3 | |
| 20260505232039 | 11 | 0.0 | 0.0 | 0.00 | 0.00 | 0.00 | 100 | 1004.3 | |
| 20260505231538 | 11 | 0.0 | 0.0 | 0.00 | 0.00 | 0.00 | 100 | 1004.3 | |
| 20260505231038 | 11 | 0.0 | 0.0 | 0.00 | 0.00 | 0.00 | 100 | 1004.3 | |
| 20260505230536 | 11 | 0.0 | 0.0 | 0.00 | 0.00 | 0.00 | 100 | 1004.4 | |
| 20260505230035 | 11 | 0.0 | 0.0 | 0.00 | 0.00 | 0.00 | 100 | 1004.4 | |
| 20260505225535 | 11 | 0.0 | 0.0 | 0.00 | 0.00 | 0.00 | 100 | 1004.5 | |
| 20260505225033 | 11 | 0.0 | 0.0 | 0.00 | 0.00 | 0.00 | 100 | 1004.6 | |
| 20260505224532 | 11 | 0.0 | 0.0 | 0.00 | 0.00 | 0.00 | 100 | 1004.6 | |
| 20260505224032 | 11 | 0.0 | 0.0 | 0.00 | 0.00 | 0.00 | 100 | 1004.6 | |
| 20260505223530 | 11 | 0.0 | 0.0 | 0.00 | 0.00 | 0.00 | 100 | 1004.6 | |
| 20260505223030 | 11 | 0.0 | 0.0 | 0.00 | 0.00 | 0.00 | 100 | 1004.4 | |
| 20260505222528 | 11 | 0.0 | 0.0 | 0.00 | 0.00 | 0.00 | 100 | 1004.4 | |
| 20260505222028 | 11 | 0.0 | 0.0 | 0.00 | 0.00 | 0.00 | 100 | 1004.3 | |
| 20260505221526 | 11 | 0.0 | 0.0 | 0.00 | 0.00 | 0.00 | 100 | 1004.3 | |
| 20260505221026 | 11 | 0.0 | 0.0 | 0.00 | 0.00 | 0.00 | 100 | 1004.3 | |
| 20260505220023 | 11 | 0.0 | 0.0 | 0.00 | 0.00 | 0.00 | 100 | 1004.4 | |
| 20260505215523 | 11 | 0.0 | 0.0 | 0.00 | 0.00 | 0.00 | 100 | 1004.8 | |
| 20260505215021 | 11 | 0.0 | 0.0 | 0.00 | 0.00 | 0.00 | 100 | 1005.2 | |
| 20260505214520 | 11 | 0.0 | 0.0 | 0.00 | 0.00 | 0.00 | 100 | 1005.2 | |
| 20260505214020 | 11 | 0.0 | 0.0 | 0.00 | 0.00 | 0.00 | 100 | 1005.2 | |
| 20260505213518 | 11 | 0.0 | 0.0 | 0.00 | 0.00 | 0.00 | 100 | 1005.2 | |
| 20260505213017 | 11 | 0.0 | 0.0 | 0.00 | 0.00 | 0.00 | 100 | 1005.2 | |
| 20260505212517 | 11 | 0.0 | 0.0 | 0.00 | 0.00 | 0.00 | 100 | 1005.2 | |
| 20260505212015 | 12 | 0.0 | 0.0 | 0.00 | 0.00 | 0.00 | 99 | 1005.4 | |
| 20260505211014 | 12 | 0.0 | 0.0 | 0.00 | 0.00 | 0.00 | 90 | 1005.6 | |
| 20260505210012 | 12 | 0.0 | 0.0 | 0.00 | 0.00 | 0.00 | 82 | 1005.7 | |
| 20260505205009 | 13 | 0.0 | 0.0 | 0.00 | 0.00 | 0.00 | 81 | 1005.7 | |
| 20260505204007 | 13 | 0.0 | 0.0 | 0.00 | 0.00 | 0.00 | 80 | 1005.6 | |
| 20260505203005 | 14 | 0.0 | 0.0 | 0.00 | 0.00 | 0.00 | 78 | 1005.7 | |
| 20260505202003 | 15 | 0.0 | 0.0 | 0.00 | 0.00 | 0.00 | 79 | 1005.7 | |
| 20260505201002 | 15 | 0.0 | 0.0 | 0.00 | 0.00 | 0.00 | 80 | 1005.4 | |
| 20260505200500 | 15 | 0.0 | 0.0 | 0.00 | 0.00 | 0.00 | 80 | 1005.3 | |
| 20260505200000 | 15 | 0.0 | 0.0 | 0.00 | 0.00 | 0.00 | 80 | 1005.3 | |
| 20260505195459 | 15 | 0.0 | 0.0 | 0.00 | 0.00 | 0.00 | 79 | 1004.8 | |
| 20260505194957 | 15 | 0.0 | 0.0 | 0.00 | 0.00 | 0.00 | 79 | 1004.8 | |
| 20260505194457 | 15 | 0.0 | 0.0 | 0.00 | 0.00 | 0.00 | 79 | 1004.8 | |
| 20260505193956 | 15 | 0.0 | 0.0 | 0.00 | 0.00 | 0.00 | 79 | 1004.3 | |
| 20260505193454 | 16 | 0.0 | 0.0 | 0.00 | 0.00 | 0.00 | 79 | 1004.0 | |
| 20260505192954 | 16 | 0.0 | 0.0 | 0.00 | 0.00 | 0.00 | 79 | 1004.0 | |
| 20260505192453 | 16 | 0.0 | 0.0 | 0.00 | 0.00 | 0.00 | 79 | 1004.0 | |
| 20260505191951 | 16 | 0.0 | 0.0 | 0.00 | 0.00 | 0.00 | 79 | 1003.9 | |
| 20260505191450 | 16 | 0.0 | 0.0 | 0.00 | 0.00 | 0.00 | 79 | 1003.9 | |
| 20260505190950 | 16 | 0.0 | 0.0 | 0.00 | 0.00 | 0.00 | 78 | 1004.0 | |
| 20260505190448 | 16 | 0.0 | 0.0 | 0.00 | 0.00 | 0.00 | 78 | 1004.0 | |
| 20260505185947 | 16 | 0.0 | 0.0 | 0.00 | 0.00 | 0.00 | 78 | 1004.0 | |
| 20260505185447 | 16 | 0.0 | 0.0 | 0.00 | 0.00 | 0.00 | 78 | 1004.0 | |
| 20260505184945 | 16 | 0.0 | 0.0 | 0.00 | 0.00 | 0.00 | 78 | 1004.1 | |
| 20260505184444 | 16 | 0.0 | 0.0 | 0.00 | 0.00 | 0.00 | 78 | 1004.3 | |
| 20260505183944 | 16 | 0.0 | 0.0 | 0.00 | 0.00 | 0.00 | 78 | 1004.3 | |
| 20260505183443 | 16 | 0.0 | 0.0 | 0.00 | 0.00 | 0.00 | 78 | 1004.5 | |
| 20260505182941 | 16 | 0.0 | 0.0 | 0.00 | 0.00 | 0.00 | 78 | 1004.5 | |
| 20260505182441 | 16 | 0.0 | 0.0 | 0.00 | 0.00 | 0.00 | 78 | 1004.5 | |
| 20260505181939 | 17 | 0.0 | 0.0 | 0.00 | 0.00 | 0.00 | 78 | 1004.4 | |
| 20260505181438 | 17 | 0.0 | 0.0 | 0.00 | 0.00 | 0.00 | 78 | 1004.4 | |
| 20260505180938 | 17 | 0.0 | 0.0 | 0.00 | 0.00 | 0.00 | 77 | 1004.3 | |
| 20260505180436 | 17 | 0.0 | 0.0 | 0.00 | 0.00 | 0.00 | 77 | 1004.2 | |
| 20260505175936 | 17 | 0.0 | 0.0 | 0.00 | 0.00 | 0.00 | 77 | 1004.2 | |
| 20260505175435 | 17 | 0.0 | 0.0 | 0.00 | 0.00 | 0.00 | 77 | 1004.2 | |
| 20260505174933 | 17 | 0.0 | 0.0 | 0.00 | 0.00 | 0.00 | 77 | 1004.3 | |
| 20260505174432 | 17 | 0.0 | 0.0 | 0.00 | 0.00 | 0.00 | 77 | 1004.3 | |
| 20260505173932 | 17 | 0.0 | 0.0 | 0.00 | 0.00 | 0.00 | 77 | 1004.6 | |
| 20260505173430 | 17 | 0.0 | 0.0 | 0.00 | 0.00 | 0.00 | 77 | 1004.6 | |
| 20260505172930 | 17 | 0.0 | 0.0 | 0.00 | 0.00 | 0.00 | 76 | 1004.7 | |
| 20260505172429 | 17 | 0.0 | 0.0 | 0.00 | 0.00 | 0.00 | 76 | 1004.7 | |
| 20260505171928 | 17 | 0.0 | 0.0 | 0.00 | 0.00 | 0.00 | 76 | 1004.7 | |
| 20260505171426 | 18 | 0.0 | 0.0 | 0.00 | 0.00 | 0.00 | 75 | 1004.7 | |
| 20260505170925 | 18 | 0.0 | 0.0 | 0.00 | 0.00 | 0.00 | 75 | 1004.7 | |
| 20260505170425 | 18 | 0.0 | 0.0 | 0.00 | 0.00 | 0.00 | 75 | 1004.7 | |
| 20260505165923 | 18 | 0.0 | 0.0 | 0.00 | 0.00 | 0.00 | 75 | 1004.8 | |
| 20260505165422 | 18 | 0.0 | 0.0 | 0.00 | 0.00 | 0.00 | 75 | 1004.8 | |
| 20260505164922 | 18 | 0.0 | 0.0 | 0.00 | 0.00 | 0.00 | 74 | 1004.9 | |
| 20260505164420 | 18 | 0.0 | 0.0 | 0.00 | 0.00 | 0.00 | 74 | 1004.9 | |
| 20260505163920 | 18 | 0.0 | 0.0 | 0.00 | 0.00 | 0.00 | 73 | 1005.0 | |
| 20260505163418 | 18 | 0.0 | 0.0 | 0.00 | 0.00 | 0.00 | 73 | 1005.0 | |
| 20260505162917 | 18 | 0.0 | 0.0 | 0.00 | 0.00 | 0.00 | 73 | 1005.3 | |
| 20260505162416 | 18 | 0.0 | 0.0 | 0.00 | 0.00 | 0.00 | 72 | 1005.3 | |
| 20260505161915 | 18 | 0.0 | 0.0 | 0.00 | 0.00 | 0.00 | 72 | 1005.3 | |
| 20260505161415 | 18 | 0.0 | 0.0 | 0.00 | 0.00 | 0.00 | 72 | 1005.3 | |
| 20260505160913 | 19 | 0.0 | 0.0 | 0.00 | 0.00 | 0.00 | 72 | 1005.0 | |
| 20260505160412 | 19 | 0.0 | 0.0 | 0.00 | 0.00 | 0.00 | 72 | 1005.0 | |
| 20260505152907 | 19 | 0.0 | 0.0 | 0.00 | 0.00 | 0.00 | 72 | 1005.6 | |
| 20260505152404 | 19 | 0.0 | 0.0 | 0.00 | 0.00 | 0.00 | 70 | 1005.7 | |
| 20260505151903 | 19 | 0.0 | 0.0 | 0.00 | 0.00 | 0.00 | 70 | 1005.7 | |
| 20260505151403 | 19 | 0.0 | 0.0 | 0.00 | 0.00 | 0.00 | 70 | 1005.7 | |
| 20260505150901 | 20 | 0.0 | 0.0 | 0.00 | 0.00 | 0.00 | 70 | 1005.7 | |
| 20260505150400 | 20 | 0.0 | 0.0 | 0.00 | 0.00 | 0.00 | 70 | 1005.7 | |
| 20260505140348 | 20 | 0.0 | 0.0 | 0.00 | 0.00 | 0.00 | 72 | 1006.1 | |
| 20260505124833 | 20 | 0.0 | 0.0 | 0.00 | 0.00 | 0.00 | 77 | 1006.9 | |
| 20260505124333 | 20 | 0.0 | 0.0 | 0.00 | 0.00 | 0.00 | 77 | 1006.9 | |
| 20260505123831 | 20 | 0.0 | 0.0 | 0.00 | 0.00 | 0.00 | 79 | 1006.9 | |
| 20260505123330 | 20 | 0.0 | 0.0 | 0.00 | 0.00 | 0.00 | 78 | 1007.0 | |
| 20260505122829 | 20 | 0.0 | 0.0 | 0.00 | 0.00 | 0.00 | 78 | 1007.0 | |
| 20260505122329 | 20 | 0.0 | 0.0 | 0.00 | 0.00 | 0.00 | 78 | 1007.0 | |
| 20260505121827 | 20 | 0.0 | 0.0 | 0.00 | 0.00 | 0.00 | 80 | 1007.1 | |
| 20260505121326 | 20 | 0.0 | 0.0 | 0.00 | 0.00 | 0.00 | 80 | 1007.1 | |
| 20260505120826 | 20 | 0.0 | 0.0 | 0.00 | 0.00 | 0.00 | 79 | 1007.1 | |
| 20260505120324 | 19 | 0.0 | 0.0 | 0.00 | 0.00 | 0.00 | 80 | 1007.2 | |
| 20260505115823 | 19 | 0.0 | 0.0 | 0.00 | 0.00 | 0.00 | 80 | 1007.2 | |
| 20260505115323 | 19 | 0.0 | 0.0 | 0.00 | 0.00 | 0.00 | 80 | 1007.2 | |
| 20260505114821 | 19 | 0.0 | 0.0 | 0.00 | 0.00 | 0.00 | 80 | 1007.2 | |
| 20260505114320 | 19 | 0.0 | 0.0 | 0.00 | 0.00 | 0.00 | 80 | 1007.2 | |
| 20260505113820 | 19 | 0.0 | 0.0 | 0.00 | 0.00 | 0.00 | 80 | 1007.3 | |
| 20260505113318 | 19 | 0.0 | 0.0 | 0.00 | 0.00 | 0.00 | 80 | 1007.4 | |
| 20260505112817 | 19 | 0.0 | 0.0 | 0.00 | 0.00 | 0.00 | 80 | 1007.4 | |
| 20260505112317 | 19 | 0.0 | 0.0 | 0.00 | 0.00 | 0.00 | 80 | 1007.4 | |
| 20260505111815 | 18 | 0.0 | 0.0 | 0.00 | 0.00 | 0.00 | 81 | 1007.5 | |
| 20260505111314 | 18 | 0.0 | 0.0 | 0.00 | 0.00 | 0.00 | 81 | 1007.5 | |
| 20260505110813 | 18 | 0.0 | 0.0 | 0.00 | 0.00 | 0.00 | 80 | 1007.6 | |
| 20260505110313 | 18 | 0.0 | 0.0 | 0.00 | 0.00 | 0.00 | 80 | 1007.6 | |
| 20260505101804 | 18 | 0.0 | 0.0 | 0.00 | 0.00 | 0.00 | 86 | 1008.0 | |
| 20260505101303 | 17 | 0.0 | 0.0 | 0.00 | 0.00 | 0.00 | 86 | 1008.2 | |
| 20260505100801 | 17 | 0.0 | 0.0 | 0.00 | 0.00 | 0.00 | 87 | 1008.2 | |
| 20260505100300 | 17 | 0.0 | 0.0 | 0.00 | 0.00 | 0.00 | 87 | 1008.2 | |
| 20260505095800 | 17 | 0.0 | 0.0 | 0.00 | 0.00 | 0.00 | 87 | 1008.2 | |
| 20260505095258 | 17 | 0.0 | 0.0 | 0.00 | 0.00 | 0.00 | 86 | 1008.2 | |
| 20260505094757 | 17 | 0.0 | 0.0 | 0.00 | 0.00 | 0.00 | 86 | 1008.2 | |
| 20260505094257 | 17 | 0.0 | 0.0 | 0.00 | 0.00 | 0.00 | 87 | 1008.3 | |
| 20260505093756 | 17 | 0.0 | 0.0 | 0.00 | 0.00 | 0.00 | 87 | 1008.3 | |
| 20260505093255 | 16 | 0.0 | 0.0 | 0.00 | 0.00 | 0.00 | 88 | 1008.3 | |
| 20260505092753 | 16 | 0.0 | 0.0 | 0.00 | 0.00 | 0.00 | 88 | 1008.3 | |
| 20260505092253 | 16 | 0.0 | 0.0 | 0.00 | 0.00 | 0.00 | 89 | 1008.3 | |
| 20260505091751 | 16 | 0.0 | 0.0 | 0.00 | 0.00 | 0.00 | 89 | 1008.3 | |
| 20260505091250 | 16 | 0.0 | 0.0 | 0.00 | 0.00 | 0.00 | 89 | 1008.3 | |
| 20260505090750 | 16 | 0.0 | 0.0 | 0.00 | 0.00 | 0.00 | 89 | 1008.3 | |
| 20260505090248 | 15 | 0.0 | 0.0 | 0.00 | 0.00 | 0.00 | 89 | 1008.3 | |
| 20260505085747 | 15 | 0.0 | 0.0 | 0.00 | 0.00 | 0.00 | 89 | 1008.3 | |
| 20260505085248 | 15 | 0.0 | 0.0 | 0.00 | 0.00 | 0.00 | 91 | 1008.1 | |
| 20260505084745 | 15 | 0.0 | 0.0 | 0.00 | 0.00 | 0.00 | 91 | 1008.2 | |
| 20260505084244 | 15 | 0.0 | 0.0 | 0.00 | 0.00 | 0.00 | 91 | 1008.2 | |
| 20260505083744 | 15 | 0.0 | 0.0 | 0.00 | 0.00 | 0.00 | 90 | 1008.2 | |
| 20260505083242 | 15 | 0.0 | 0.0 | 0.00 | 0.00 | 0.00 | 90 | 1008.2 | |
| 20260505082742 | 15 | 0.0 | 0.0 | 0.00 | 0.00 | 0.00 | 90 | 1008.2 | |
| 20260505082242 | 14 | 0.0 | 0.0 | 0.00 | 0.00 | 0.00 | 90 | 1008.2 | |
| 20260505081740 | 14 | 0.0 | 0.0 | 0.00 | 0.00 | 0.00 | 90 | 1008.2 | |
| 20260505081239 | 14 | 0.0 | 0.0 | 0.00 | 0.00 | 0.00 | 88 | 1008.2 | |
| 20260505080738 | 14 | 0.0 | 0.0 | 0.00 | 0.00 | 0.00 | 88 | 1008.2 | |
| 20260505080238 | 14 | 0.0 | 0.0 | 0.00 | 0.00 | 0.00 | 88 | 1008.3 | |
| 20260505075735 | 14 | 0.0 | 0.0 | 0.00 | 0.00 | 0.00 | 88 | 1008.3 | |
| 20260505075236 | 14 | 0.0 | 0.0 | 0.00 | 0.00 | 0.00 | 88 | 1008.2 | |
| 20260505074733 | 14 | 0.0 | 0.0 | 0.00 | 0.00 | 0.00 | 88 | 1008.3 | |
| 20260505074232 | 14 | 0.0 | 0.0 | 0.00 | 0.00 | 0.00 | 88 | 1008.3 | |
| 20260505073733 | 14 | 0.0 | 0.0 | 0.00 | 0.00 | 0.00 | 88 | 1008.3 | |
| 20260505073230 | 13 | 0.0 | 0.0 | 0.00 | 0.00 | 0.00 | 88 | 1008.3 | |
| 20260505072729 | 13 | 0.0 | 0.0 | 0.00 | 0.00 | 0.00 | 87 | 1008.3 | |
| 20260505072229 | 13 | 0.0 | 0.0 | 0.00 | 0.00 | 0.00 | 87 | 1008.3 | |
| 20260505071728 | 13 | 0.0 | 0.0 | 0.00 | 0.00 | 0.00 | 87 | 1008.3 | |
| 20260505071226 | 13 | 0.0 | 0.0 | 0.00 | 0.00 | 0.00 | 88 | 1008.3 | |
| 20260505070725 | 13 | 0.0 | 0.0 | 0.00 | 0.00 | 0.00 | 88 | 1008.3 | |
| 20260505070225 | 13 | 0.0 | 0.0 | 0.00 | 0.00 | 0.00 | 86 | 1008.2 | |
| 20260505065723 | 13 | 0.0 | 0.0 | 0.00 | 0.00 | 0.00 | 86 | 1008.4 | |
| 20260505065223 | 13 | 0.0 | 0.0 | 0.00 | 0.00 | 0.00 | 86 | 1008.4 | |
| 20260505064722 | 13 | 0.0 | 0.0 | 0.00 | 0.00 | 0.00 | 86 | 1008.4 | |
| 20260505064220 | 13 | 0.0 | 0.0 | 0.00 | 0.00 | 0.00 | 86 | 1008.5 | |
| 20260505063719 | 13 | 0.0 | 0.0 | 0.00 | 0.00 | 0.00 | 85 | 1008.5 | |
| 20260505063219 | 13 | 0.0 | 0.0 | 0.00 | 0.00 | 0.00 | 85 | 1008.5 | |
| 20260505062718 | 13 | 0.0 | 0.0 | 0.00 | 0.00 | 0.00 | 85 | 1008.5 | |
| 20260505062216 | 13 | 0.0 | 0.0 | 0.00 | 0.00 | 0.00 | 85 | 1008.6 | |
| 20260505061715 | 13 | 0.0 | 0.0 | 0.00 | 0.00 | 0.00 | 85 | 1008.6 | |
| 20260505061215 | 13 | 0.0 | 0.0 | 0.00 | 0.00 | 0.00 | 85 | 1008.6 | |
| 20260505060713 | 13 | 0.0 | 0.0 | 0.00 | 0.00 | 0.00 | 85 | 1008.6 | |
| 20260505060213 | 13 | 0.0 | 0.0 | 0.00 | 0.00 | 0.00 | 84 | 1008.5 | |
| 20260505055711 | 13 | 0.0 | 0.0 | 0.00 | 0.00 | 0.00 | 84 | 1008.5 | |
| 20260505055211 | 13 | 0.0 | 0.0 | 0.00 | 0.00 | 0.00 | 83 | 1008.6 | |
| 20260505054709 | 13 | 0.0 | 0.0 | 0.00 | 0.00 | 0.00 | 83 | 1008.8 | |
| 20260505054208 | 13 | 0.0 | 0.0 | 0.00 | 0.00 | 0.00 | 83 | 1008.8 | |
| 20260505053708 | 13 | 0.0 | 0.0 | 0.00 | 0.00 | 0.00 | 83 | 1008.8 | |
| 20260505053206 | 13 | 0.0 | 0.0 | 0.00 | 0.00 | 0.00 | 83 | 1008.9 | |
| 20260505052705 | 13 | 0.0 | 0.0 | 0.00 | 0.00 | 0.00 | 83 | 1008.9 | |
| 20260505052205 | 13 | 0.0 | 0.0 | 0.00 | 0.00 | 0.00 | 83 | 1008.9 | |
| 20260505051704 | 13 | 0.0 | 0.0 | 0.00 | 0.00 | 0.00 | 82 | 1008.8 | |
| 20260505051202 | 13 | 0.0 | 0.0 | 0.00 | 0.00 | 0.00 | 82 | 1008.8 | |
| 20260505050702 | 13 | 0.0 | 0.0 | 0.00 | 0.00 | 0.00 | 82 | 1008.8 | |
| 20260505050200 | 13 | 0.0 | 0.0 | 0.00 | 0.00 | 0.00 | 82 | 1008.8 | |
| 20260505041650 | 13 | 0.0 | 0.0 | 0.00 | 0.00 | 0.00 | 81 | 1008.9 | |
| 20260505041150 | 13 | 0.0 | 0.0 | 0.00 | 0.00 | 0.00 | 81 | 1008.9 | |
| 20260505040648 | 13 | 0.0 | 0.0 | 0.00 | 0.00 | 0.00 | 81 | 1009.0 | |
| 20260505040147 | 13 | 0.0 | 0.0 | 0.00 | 0.00 | 0.00 | 81 | 1009.0 | |
| 20260505035647 | 13 | 0.0 | 0.0 | 0.00 | 0.00 | 0.00 | 81 | 1009.0 | |
| 20260505035145 | 13 | 0.0 | 0.0 | 0.00 | 0.00 | 0.00 | 81 | 1008.9 | |
| 20260505034644 | 13 | 0.0 | 0.0 | 0.00 | 0.00 | 0.00 | 81 | 1008.9 | |
| 20260505034144 | 13 | 0.0 | 0.0 | 0.00 | 0.00 | 0.00 | 81 | 1009.0 | |
| 20260505033642 | 13 | 0.0 | 0.0 | 0.00 | 0.00 | 0.00 | 81 | 1009.0 | |
| 20260505033142 | 13 | 0.0 | 0.0 | 0.00 | 0.00 | 0.00 | 81 | 1009.2 | |
| 20260505032640 | 13 | 0.0 | 0.0 | 0.00 | 0.00 | 0.00 | 81 | 1009.2 | |
| 20260505032139 | 13 | 0.0 | 0.0 | 0.00 | 0.00 | 0.00 | 81 | 1009.2 | |
| 20260505031639 | 13 | 0.0 | 0.0 | 0.00 | 0.00 | 0.00 | 81 | 1009.2 | |
| 20260505031137 | 13 | 0.0 | 0.0 | 0.00 | 0.00 | 0.00 | 80 | 1009.2 | |
| 20260505030636 | 13 | 0.0 | 0.0 | 0.00 | 0.00 | 0.00 | 80 | 1009.2 | |
| 20260505030136 | 13 | 0.0 | 0.0 | 0.00 | 0.00 | 0.00 | 80 | 1009.2 | |
| 20260505025634 | 13 | 0.0 | 0.0 | 0.00 | 0.00 | 0.00 | 80 | 1009.2 | |
| 20260505025133 | 13 | 0.0 | 0.0 | 0.00 | 0.00 | 0.00 | 80 | 1009.4 | |
| 20260505024632 | 13 | 0.0 | 0.0 | 0.00 | 0.00 | 0.00 | 80 | 1009.4 | |
| 20260505024132 | 13 | 0.0 | 0.0 | 0.00 | 0.00 | 0.00 | 80 | 1009.4 | |
| 20260505023630 | 13 | 0.0 | 0.0 | 0.00 | 0.00 | 0.00 | 80 | 1009.3 | |
| 20260505023129 | 13 | 0.0 | 0.0 | 0.00 | 0.00 | 0.00 | 80 | 1009.3 | |
| 20260505022629 | 13 | 0.0 | 0.0 | 0.00 | 0.00 | 0.00 | 80 | 1009.3 | |
| 20260505022127 | 14 | 0.0 | 0.0 | 0.00 | 0.00 | 0.00 | 80 | 1009.3 | |
| 20260505021626 | 14 | 0.0 | 0.0 | 0.00 | 0.00 | 0.00 | 80 | 1009.3 | |
| 20260505021126 | 14 | 0.0 | 0.0 | 0.00 | 0.00 | 0.00 | 79 | 1009.4 | |
| 20260505020624 | 14 | 0.0 | 0.0 | 0.00 | 0.00 | 0.00 | 79 | 1009.4 | |
| 20260505020125 | 14 | 0.0 | 0.0 | 0.00 | 0.00 | 0.00 | 79 | 1009.4 | |
| 20260505015622 | 14 | 0.0 | 0.0 | 0.00 | 0.00 | 0.00 | 79 | 1009.4 | |
| 20260505015122 | 14 | 0.0 | 0.0 | 0.00 | 0.00 | 0.00 | 79 | 1009.5 | |
| 20260505014620 | 14 | 0.0 | 0.0 | 0.00 | 0.00 | 0.00 | 79 | 1009.5 |